KLM63J EHAM-EDDM

Flight info

Callsign KLM63J
Flight time N/A
Altitude 35000
Route EDUPO Z739 MISGO DCT DOJOH DCT DODEN/N0446F330 DCT TABUM DCT BOMBI T104 HAREM/N0416F270 T104 ROKIL
Aircraft B738/M-SDE2E3FGHIRWXY/LB1

Departure

Time 2026-04-29 11:54
Airport Amsterdam Airport Schiphol (EHAM)

Arrival

Time N/A
Airport Munich Airport (EDDM)
Time Latitude Longitude Altitude Speed Heading
2026-04-29 11:15 52.30377 4.76398 -2 ft 0 kts 238°
2026-04-29 11:33 52.30387 4.76424 -2 ft 4 kts 234°
2026-04-29 11:33 52.30402 4.76449 -2 ft 4 kts 201°
2026-04-29 11:33 52.30415 4.76452 -2 ft 0 kts 158°
2026-04-29 11:37 52.30410 4.76457 -2 ft 3 kts 147°
2026-04-29 11:37 52.30363 4.76512 -2 ft 13 kts 146°
2026-04-29 11:38 52.30302 4.76536 -2 ft 3 kts 220°
2026-04-29 11:38 52.30278 4.76479 -2 ft 10 kts 238°
2026-04-29 11:38 52.30230 4.76351 -2 ft 16 kts 238°
2026-04-29 11:38 52.30161 4.76174 -2 ft 20 kts 238°
2026-04-29 11:39 52.30085 4.75973 -2 ft 21 kts 237°
2026-04-29 11:39 52.30009 4.75776 -2 ft 20 kts 238°
2026-04-29 11:39 52.29935 4.75585 -2 ft 20 kts 237°
2026-04-29 11:39 52.29865 4.75400 -2 ft 19 kts 236°
2026-04-29 11:40 52.29842 4.75207 -2 ft 18 kts 296°
2026-04-29 11:40 52.29921 4.75048 -2 ft 18 kts 311°
2026-04-29 11:40 52.30000 4.74901 -2 ft 17 kts 311°
2026-04-29 11:40 52.30078 4.74758 0 ft 16 kts 311°
2026-04-29 11:41 52.30152 4.74620 9 ft 16 kts 311°
2026-04-29 11:41 52.30231 4.74475 9 ft 18 kts 311°
2026-04-29 11:41 52.30315 4.74316 1 ft 22 kts 311°
2026-04-29 11:41 52.30420 4.74194 -2 ft 17 kts 360°
2026-04-29 11:42 52.30534 4.74204 -2 ft 16 kts
2026-04-29 11:42 52.30649 4.74213 -2 ft 17 kts
2026-04-29 11:42 52.30761 4.74224 -2 ft 16 kts
2026-04-29 11:42 52.30869 4.74234 -2 ft 15 kts
2026-04-29 11:43 52.30980 4.74246 -2 ft 17 kts
2026-04-29 11:43 52.31119 4.74260 -2 ft 21 kts
2026-04-29 11:43 52.31260 4.74271 -2 ft 20 kts
2026-04-29 11:43 52.31397 4.74285 -2 ft 19 kts
2026-04-29 11:44 52.31529 4.74296 -2 ft 19 kts
2026-04-29 11:44 52.31657 4.74309 -2 ft 18 kts
2026-04-29 11:44 52.31779 4.74320 -2 ft 18 kts
2026-04-29 11:44 52.31917 4.74333 -2 ft 20 kts
2026-04-29 11:45 52.32028 4.74252 -2 ft 20 kts 277°
2026-04-29 11:45 52.32037 4.74033 -3 ft 19 kts 273°
2026-04-29 11:45 52.32045 4.73821 -2 ft 18 kts 273°
2026-04-29 11:45 52.32052 4.73617 -2 ft 18 kts 273°
2026-04-29 11:46 52.32066 4.73421 -2 ft 17 kts 289°
2026-04-29 11:46 52.32141 4.73280 -2 ft 16 kts 320°
2026-04-29 11:46 52.32227 4.73162 -2 ft 16 kts 319°
2026-04-29 11:46 52.32311 4.73043 -2 ft 17 kts 319°
2026-04-29 11:47 52.32410 4.72904 -2 ft 20 kts 319°
2026-04-29 11:47 52.32521 4.72750 -2 ft 21 kts 319°
2026-04-29 11:47 52.32630 4.72595 -2 ft 20 kts 318°
2026-04-29 11:47 52.32727 4.72432 -2 ft 20 kts 311°
2026-04-29 11:48 52.32817 4.72265 -2 ft 19 kts 312°
2026-04-29 11:48 52.32903 4.72107 -2 ft 19 kts 311°
2026-04-29 11:48 52.32987 4.71952 -2 ft 18 kts 311°
2026-04-29 11:48 52.33076 4.71787 -2 ft 18 kts 311°
2026-04-29 11:49 52.33145 4.71638 -2 ft 16 kts 290°
2026-04-29 11:49 52.33116 4.71475 -2 ft 16 kts 222°
2026-04-29 11:49 52.33036 4.71361 -2 ft 15 kts 221°
2026-04-29 11:49 52.32971 4.71267 -2 ft 10 kts 221°
2026-04-29 11:50 52.32920 4.71195 -2 ft 9 kts 221°
2026-04-29 11:50 52.32892 4.71154 -2 ft 0 kts 223°
2026-04-29 11:50 52.32891 4.71153 -2 ft 1 kts 223°
2026-04-29 11:51 52.32868 4.71111 -2 ft 10 kts 237°
2026-04-29 11:51 52.32861 4.71055 -2 ft 0 kts 271°
2026-04-29 11:52 52.32861 4.71054 -2 ft 0 kts 271°
2026-04-29 11:52 52.32861 4.71050 -2 ft 1 kts 271°
2026-04-29 11:53 52.32863 4.71009 -3 ft 6 kts 275°
2026-04-29 11:53 52.32870 4.70930 -3 ft 7 kts 287°
2026-04-29 11:53 52.32901 4.70898 -3 ft 0 kts
2026-04-29 11:54 52.32909 4.70898 -3 ft 4 kts
2026-04-29 11:54 52.33125 4.70919 -5 ft 74 kts
2026-04-29 11:54 52.33933 4.70986 16 ft 154 kts
2026-04-29 11:54 52.35062 4.71081 937 ft 161 kts 10°
2026-04-29 11:55 52.36161 4.71210 2265 ft 162 kts 11°
2026-04-29 11:55 52.37402 4.71350 2851 ft 196 kts 10°
2026-04-29 11:55 52.38872 4.71502 3154 ft 225 kts 10°
2026-04-29 11:55 52.40466 4.71665 3652 ft 239 kts 11°
2026-04-29 11:56 52.42153 4.71998 4111 ft 249 kts 25°
2026-04-29 11:56 52.43700 4.73265 4823 ft 251 kts 35°
2026-04-29 11:56 52.45223 4.74668 5861 ft 251 kts 34°
2026-04-29 11:56 52.46732 4.76153 6745 ft 254 kts 43°
2026-04-29 11:57 52.47801 4.78423 7598 ft 253 kts 67°
2026-04-29 11:57 52.48269 4.81195 8467 ft 255 kts 82°
2026-04-29 11:57 52.48441 4.84130 9319 ft 261 kts 85°
2026-04-29 11:57 52.48573 4.87126 10209 ft 265 kts 86°
2026-04-29 11:58 52.48355 4.90165 10859 ft 278 kts 107°
2026-04-29 11:58 52.47365 4.93004 11117 ft 308 kts 129°
2026-04-29 11:58 52.45633 4.95340 11380 ft 334 kts 141°
2026-04-29 11:58 52.43680 4.97573 11902 ft 347 kts 142°
2026-04-29 11:59 52.41666 4.99828 12614 ft 353 kts 142°
2026-04-29 11:59 52.39633 5.02125 13403 ft 357 kts 142°
2026-04-29 11:59 52.37587 5.04469 14147 ft 362 kts 141°
2026-04-29 11:59 52.35511 5.06864 14787 ft 367 kts 141°
2026-04-29 12:00 52.33427 5.09319 15439 ft 370 kts 137°
2026-04-29 12:00 52.31601 5.12298 16103 ft 371 kts 128°
2026-04-29 12:00 52.29916 5.15513 16733 ft 376 kts 127°
2026-04-29 12:00 52.28197 5.18778 17361 ft 381 kts 128°
2026-04-29 12:01 52.26425 5.22053 17997 ft 386 kts 128°
2026-04-29 12:01 52.24648 5.25288 18662 ft 390 kts 128°
2026-04-29 12:01 52.22941 5.28741 19228 ft 392 kts 123°
2026-04-29 12:01 52.21359 5.32385 19815 ft 394 kts 121°
2026-04-29 12:02 52.19812 5.36077 20449 ft 395 kts 121°
2026-04-29 12:02 52.18286 5.39708 21045 ft 397 kts 121°
2026-04-29 12:02 52.16698 5.43429 21620 ft 400 kts 122°
2026-04-29 12:02 52.15106 5.47111 22162 ft 403 kts 122°
2026-04-29 12:03 52.13473 5.50846 22734 ft 406 kts 123°
2026-04-29 12:03 52.11728 5.54500 23291 ft 410 kts 125°
2026-04-29 12:03 52.09898 5.58090 23837 ft 414 kts 126°
2026-04-29 12:03 52.08024 5.61684 24266 ft 417 kts 127°
2026-04-29 12:04 52.06146 5.65281 24722 ft 419 kts 126°
2026-04-29 12:04 52.04259 5.68913 25175 ft 420 kts 126°
2026-04-29 12:04 52.02399 5.72511 25606 ft 422 kts 126°
2026-04-29 12:04 52.00488 5.76224 26029 ft 424 kts 126°
2026-04-29 12:05 51.98619 5.79860 26444 ft 426 kts 126°
2026-04-29 12:05 51.96716 5.83563 26862 ft 428 kts 126°
2026-04-29 12:05 51.94801 5.87284 27263 ft 430 kts 126°
2026-04-29 12:05 51.92883 5.91007 27656 ft 431 kts 125°
2026-04-29 12:06 51.90951 5.94749 28039 ft 433 kts 125°
2026-04-29 12:06 51.89664 5.97240 28299 ft 434 kts 125°
2026-04-29 12:06 51.87086 6.02221 28767 ft 437 kts 125°
2026-04-29 12:06 51.85126 6.06001 29113 ft 439 kts 125°
2026-04-29 12:07 51.83157 6.09794 29442 ft 441 kts 125°
2026-04-29 12:07 51.81170 6.13616 29760 ft 443 kts 125°
2026-04-29 12:07 51.79854 6.16144 30041 ft 443 kts 125°
2026-04-29 12:07 51.77877 6.19934 30560 ft 440 kts 125°
2026-04-29 12:08 51.75901 6.23692 31032 ft 437 kts 126°
2026-04-29 12:08 51.73890 6.27391 31423 ft 436 kts 126°
2026-04-29 12:08 51.71892 6.31009 31763 ft 436 kts 126°
2026-04-29 12:08 51.69868 6.34666 32118 ft 436 kts 126°
2026-04-29 12:09 51.67858 6.38307 32514 ft 434 kts 126°
2026-04-29 12:09 51.65855 6.41943 32919 ft 432 kts 126°
2026-04-29 12:09 51.63856 6.45571 33293 ft 431 kts 126°
2026-04-29 12:09 51.61867 6.49177 33638 ft 431 kts 126°
2026-04-29 12:10 51.59876 6.52779 34001 ft 430 kts 125°
2026-04-29 12:10 51.57891 6.56365 34358 ft 428 kts 125°
2026-04-29 12:10 51.55907 6.59945 34615 ft 429 kts 126°
2026-04-29 12:10 51.53922 6.63525 34788 ft 431 kts 126°
2026-04-29 12:11 51.51921 6.67130 34977 ft 432 kts 126°
2026-04-29 12:11 51.49945 6.70683 35216 ft 433 kts 126°